[[{"header":{"parameterUnit":"m.s-1","parameterCategory":1,"la1":30.2991,"la2":30.254,"lo1":-89.0895,"lo2":-89.0444,"dy":0.0017,"dx":0.0017,"nx":28,"ny":28,"refTime":"2026-02-01T09:00:00:Z","depth":0,"parameterNumber":2,"parameterNumberName":"U-component_of_WINDS"},"data":[0,0,0,0,0,0,0,0,0,0,0,0,0,0,0,0,0,0,0,0,0,0,0,0,0,0,0,0,0,0,0,0,0,0,0,0,0,0,0,0,0,0,0,0,0,0,0,0,0,0,0,0,0,0,0,0,0,0,2.8086,2.8087,0,2.8183,2.8184,2.8185,2.8122,2.8119,2.8116,2.8113,2.8214,2.8219,2.8225,0,0,0,0,0,0,0,0,0,0,0,0,0,2.7849,2.7854,2.8086,2.8088,2.8089,2.8183,2.8184,2.8185,2.8122,2.8119,2.8115,2.8112,2.8212,2.8219,2.8225,0,0,0,0,0,0,0,0,0,0,0,0,0,2.795,2.7855,2.8086,2.8069,2.8068,2.8182,2.8184,2.8186,2.8123,2.8119,2.8114,2.811,2.821,2.8218,2.8226,2.8364,0,0,2.8251,2.8254,0,0,0,0,0,0,0,0,2.7944,2.7958,2.807,2.807,2.807,2.8136,2.8137,2.8245,2.8124,2.8102,2.8113,2.8108,2.8192,2.8201,2.8229,2.8368,2.8373,2.8252,2.8256,2.826,2.8262,0,0,0,0,0,0,0,2.7937,2.7954,2.8124,2.8072,2.8071,2.8056,2.8066,2.8157,2.817,2.8104,2.8099,2.8112,2.8191,2.8221,2.8231,2.8374,2.8251,2.8258,2.8263,2.8267,2.8631,2.8636,0,0,0,0,0,0,2.7931,2.7949,2.8121,2.8127,2.7995,2.8064,2.8075,2.8119,2.8169,2.8173,2.8115,2.8108,2.8209,2.8221,2.8234,2.8398,2.826,2.8267,2.8272,2.8627,2.8632,2.8638,0,0,0,0,0,0,2.7927,2.7947,2.8118,2.8037,2.8057,2.8073,2.8123,2.8123,2.8153,2.8178,2.818,2.8144,2.8206,2.8223,2.8332,2.8401,2.8271,2.8278,2.8621,2.8628,2.8635,2.8728,0,0,0,0,0,0,2.792,2.7946,2.7998,2.8038,2.8062,2.8214,2.8127,2.8128,2.8167,2.8159,2.8205,2.8209,2.8204,2.832,2.834,2.841,2.8285,2.8615,2.8624,2.8633,2.8719,2.8737,2.8753,0,0,0,0,0,2.7912,2.8021,2.8001,2.8022,2.8127,2.8218,2.8231,2.8223,2.8173,2.8226,2.8242,2.8207,2.839,2.8332,2.8353,2.8427,2.861,2.8621,2.8632,2.8711,2.8734,2.8753,0,0,0,0,0,0,2.7989,2.8026,2.8004,2.813,2.8171,2.8207,2.8273,2.8248,2.8304,2.8294,2.8283,2.8294,2.8408,2.8428,2.8362,2.8563,2.8492,2.8508,2.8545,2.8567,2.8584,2.8577,2.8292,0,0,0,0,0,2.8021,2.809,2.8119,2.8227,2.8249,2.8258,2.8297,2.8287,2.8329,2.8347,2.837,2.8413,2.848,2.8525,2.8588,2.8721,2.8731,2.8783,2.88,2.8814,2.8828,2.89,2.8923,2.8673,2.8673,2.8673,0,0,2.8087,2.8116,2.816,2.8243,2.8274,2.8347,2.8273,2.8353,2.8407,2.8359,2.8463,2.8482,2.8529,2.8651,2.8706,2.8672,2.8899,2.8828,2.8839,2.8845,2.8914,2.8937,2.8958,2.8681,2.8679,2.8678,0,0,2.8244,2.8273,2.8366,2.8398,2.8445,2.8451,2.8473,2.8513,2.8523,2.8628,2.8593,2.8657,2.8773,2.8808,2.8841,2.9012,2.8983,2.9033,2.9124,2.9194,2.9214,2.9231,2.9292,2.9314,2.9047,2.9047,2.9047,0,2.8321,2.8429,2.8417,2.85,2.8538,2.8497,2.8591,2.8623,2.8689,2.8716,2.8676,2.8821,2.885,2.8979,2.9021,2.9049,2.9074,2.9028,2.9212,2.9229,2.9245,2.9303,2.9326,2.9053,2.9052,2.9051,2.9051,0,2.852,2.8596,2.8665,2.8729,2.8774,2.8862,2.8865,2.8912,2.8899,2.8908,2.9015,2.9048,2.9117,2.9147,2.9135,2.9275,2.9252,2.9213,2.9142,2.9275,2.9329,2.9351,2.9061,2.9059,2.9057,2.9056,0,0,2.873,2.8785,2.8811,2.8839,2.8888,2.8947,2.9033,2.91,2.9141,2.9188,2.926,2.9359,2.9322,2.936,2.9351,2.9413,2.9546,2.9366,2.9367,2.9398,2.9703,2.9732,2.9758,2.9527,2.9531,2.9534,2.9698,0,2.889,2.904,2.9032,2.9173,2.9242,2.9205,2.928,2.9318,2.933,2.9391,2.9403,2.9473,2.942,2.9442,2.9501,2.9517,2.9607,2.9505,2.9594,2.9598,2.9583,2.9786,2.9818,2.9971,2.972,2.9723,2.9726,0,2.9097,2.915,2.9298,2.9336,2.9365,2.9433,2.9493,2.9552,2.9595,2.9598,2.964,2.9622,2.9709,2.9636,2.9758,2.9689,2.9724,2.9738,2.9744,2.9752,2.967,2.98,3.002,3.0043,2.9759,2.9756,2.9754,0,2.9235,2.9343,2.9445,2.9471,2.9518,2.9567,2.9589,2.9627,2.9668,2.9721,2.9747,2.981,2.9845,2.9894,2.9893,2.984,3.0016,2.9943,3.0021,3.0022,3.006,3.0058,3.0289,3.0084,3.0083,3.0083,3.0083,0,2.9415,2.9507,2.9508,2.9571,2.9673,2.9663,2.9764,2.9781,2.9816,2.9881,2.9853,2.9915,2.991,2.9974,2.9974,3.0074,3.009,3.0095,3.0094,3.0098,3.0097,3.0121,3.0111,3.0089,3.0088,3.0087,3.0086,0,2.9586,2.9591,2.9699,2.9735,2.9746,2.9819,2.985,2.991,2.9918,3.0002,3.0021,3.0035,3.0108,3.0111,3.0196,3.0196,3.0318,3.0305,3.0303,3.0301,3.0379,3.0372,3.0634,3.0668,3.0441,3.0443,3.0445,0,2.9701,2.977,2.9813,2.9854,2.9879,2.9947,2.9988,2.9981,3.0025,3.0079,3.0132,3.0202,3.0258,3.0377,3.0395,3.0459,3.0447,3.0535,3.0457,3.0458,3.0449,3.0444,3.0451,3.055,3.0553,3.0555,3.0556,0,2.9903,2.9902,2.9961,3.0022,3.0072,3.0119,3.0164,3.02,3.0198,3.0249,3.0323,3.0366,3.0452,3.0522,3.0585,3.0608,3.0583,3.0581,3.0602,3.0607,3.0603,3.0606,3.0344,3.0575,3.0573,3.0571,3.057,3.057,3.005,3.011,3.0149,3.0216,3.0248,3.029,3.0348,3.0363,3.0425,3.0493,3.0486,3.0568,3.0609,3.069,3.0719,3.0783,3.0753,3.0785,3.0792,3.08,3.0808,3.0592,3.0794,3.0794,3.0793,3.0793,3.0793,0,3.0251,3.0274,3.0336,3.0398,3.0451,3.0422,3.0469,3.0516,3.0588,3.0628,3.0683,3.0768,3.0836,3.0859,3.0925,3.0972,3.0962,3.0989,3.0986,3.0992,3.0832,3.0806,3.0996,3.0996,3.0996,3.0996,3.0996,3.0996,3.0362,3.0461,3.0464,3.058,3.0602,3.0682,3.0711,3.075,3.0782,3.0878,3.0933,3.0947,3.0981,3.1049,3.111,3.1115,3.114,3.1173,3.1173,3.1023,3.1003,3.0983,3.0959,3.1179,3.1179,3.1328,3.1329,3.133]},{"header":{"parameterUnit":"m.s-1","parameterCategory":1,"la1":30.2991,"la2":30.254,"lo1":-89.0895,"lo2":-89.0444,"dy":0.0017,"dx":0.0017,"nx":28,"ny":28,"refTime":"2026-02-01T09:00:00:Z","depth":0,"parameterNumber":3,"parameterNumberName":"V-component_of_WINDS"},"data":[0,0,0,0,0,0,0,0,0,0,0,0,0,0,0,0,0,0,0,0,0,0,0,0,0,0,0,0,0,0,0,0,0,0,0,0,0,0,0,0,0,0,0,0,0,0,0,0,0,0,0,0,0,0,0,0,0,0,-1.8826,-1.8828,0,-1.903,-1.9033,-1.9035,-1.9085,-1.9083,-1.9082,-1.9081,-1.9293,-1.93,-1.9307,0,0,0,0,0,0,0,0,0,0,0,0,0,-1.8482,-1.8488,-1.8826,-1.8828,-1.8831,-1.903,-1.9033,-1.9036,-1.9085,-1.9083,-1.9082,-1.908,-1.9291,-1.9299,-1.9308,0,0,0,0,0,0,0,0,0,0,0,0,0,-1.8653,-1.849,-1.8825,-1.8879,-1.8886,-1.9029,-1.9033,-1.9036,-1.9085,-1.9083,-1.9081,-1.9079,-1.9288,-1.9299,-1.9309,-1.9414,0,0,-1.9341,-1.9345,0,0,0,0,0,0,0,0,-1.8643,-1.8666,-1.8869,-1.8876,-1.8884,-1.903,-1.899,-1.9163,-1.9086,-1.901,-1.9081,-1.9078,-1.9208,-1.9225,-1.9268,-1.9424,-1.9433,-1.9341,-1.9348,-1.9352,-1.9355,0,0,0,0,0,0,0,-1.8631,-1.8657,-1.8907,-1.8872,-1.8881,-1.8895,-1.8917,-1.9023,-1.9118,-1.9016,-1.902,-1.9044,-1.9211,-1.9257,-1.9273,-1.9436,-1.9341,-1.935,-1.9357,-1.9361,-1.9689,-1.9692,0,0,0,0,0,0,-1.861,-1.8647,-1.89,-1.8913,-1.8756,-1.8903,-1.8927,-1.8985,-1.9117,-1.9135,-1.9045,-1.9045,-1.9241,-1.9261,-1.9281,-1.9412,-1.9352,-1.9362,-1.9368,-1.9687,-1.969,-1.9693,0,0,0,0,0,0,-1.8602,-1.8632,-1.8892,-1.8781,-1.8815,-1.8911,-1.8975,-1.899,-1.9036,-1.9139,-1.9156,-1.9075,-1.924,-1.9266,-1.938,-1.942,-1.9367,-1.9376,-1.9684,-1.9688,-1.9691,-1.9676,0,0,0,0,0,0,-1.8592,-1.8629,-1.8668,-1.8782,-1.8821,-1.8987,-1.8978,-1.8996,-1.9054,-1.9056,-1.9171,-1.9188,-1.924,-1.9364,-1.939,-1.9434,-1.9384,-1.9681,-1.9686,-1.969,-1.9674,-1.9679,-1.9684,0,0,0,0,0,-1.8579,-1.8657,-1.867,-1.8701,-1.8873,-1.8989,-1.9012,-1.907,-1.9057,-1.9098,-1.9164,-1.9184,-1.9412,-1.9376,-1.9405,-1.9452,-1.9679,-1.9684,-1.969,-1.9671,-1.9678,-1.9683,0,0,0,0,0,0,-1.8547,-1.8672,-1.8689,-1.8805,-1.8886,-1.8997,-1.9051,-1.9075,-1.9162,-1.916,-1.9229,-1.9255,-1.9365,-1.942,-1.9378,-1.9561,-1.9545,-1.9557,-1.9521,-1.9528,-1.9533,-1.9517,-1.9393,0,0,0,0,0,-1.8553,-1.8636,-1.8742,-1.8834,-1.8874,-1.8955,-1.9008,-1.9046,-1.9133,-1.9168,-1.9242,-1.9327,-1.9418,-1.9476,-1.9565,-1.9682,-1.9708,-1.9729,-1.9734,-1.9738,-1.9747,-1.9814,-1.9825,-1.9711,-1.9711,-1.9711,0,0,-1.8567,-1.8646,-1.8694,-1.8829,-1.8897,-1.8982,-1.8984,-1.9074,-1.9139,-1.9182,-1.9294,-1.9352,-1.9451,-1.9567,-1.9622,-1.9617,-1.9784,-1.9745,-1.9747,-1.9755,-1.9821,-1.9831,-1.9841,-1.9715,-1.9714,-1.9714,0,0,-1.8636,-1.8703,-1.8788,-1.8855,-1.8956,-1.901,-1.903,-1.9139,-1.9178,-1.9292,-1.9326,-1.9405,-1.9559,-1.9629,-1.9684,-1.978,-1.9802,-1.9807,-1.9834,-1.9898,-1.9907,-1.9915,-1.995,-1.9961,-1.9817,-1.9817,-1.9817,0,-1.864,-1.8769,-1.8828,-1.8917,-1.8976,-1.9018,-1.9105,-1.9168,-1.9293,-1.9334,-1.9326,-1.9521,-1.9591,-1.9724,-1.9747,-1.9791,-1.9817,-1.9794,-1.99,-1.9909,-1.9918,-1.9952,-1.9965,-1.9816,-1.9816,-1.9816,-1.9816,0,-1.877,-1.8859,-1.8915,-1.9034,-1.91,-1.9187,-1.9261,-1.932,-1.9352,-1.9407,-1.9523,-1.9608,-1.9716,-1.975,-1.9783,-1.9889,-1.9882,-1.9886,-1.9872,-1.9928,-1.9961,-1.9974,-1.9816,-1.9816,-1.9816,-1.9816,0,0,-1.8824,-1.8974,-1.8994,-1.9049,-1.9164,-1.9235,-1.9325,-1.9428,-1.9478,-1.9564,-1.9642,-1.9772,-1.9777,-1.984,-1.9881,-1.9937,-2.0008,-1.9935,-1.9939,-1.9946,-2.0131,-2.0127,-2.0141,-2.0024,-2.0026,-2.0029,-2.0123,0,-1.8907,-1.9067,-1.9123,-1.9256,-1.9339,-1.9381,-1.9459,-1.9539,-1.9593,-1.9673,-1.9734,-1.9825,-1.9824,-1.9863,-1.9921,-1.9987,-2.0046,-1.9981,-2.0098,-2.0101,-2.0071,-2.0158,-2.0154,-2.0238,-2.0136,-2.0138,-2.014,0,-1.9025,-1.9111,-1.9251,-1.9356,-1.9394,-1.9463,-1.9563,-1.9639,-1.9731,-1.9766,-1.9837,-1.9874,-1.9971,-1.995,-2.0085,-2.004,-2.0091,-2.0131,-2.0136,-2.0149,-2.0123,-2.0173,-2.0267,-2.0279,-2.0161,-2.0159,-2.0157,0,-1.905,-1.9201,-1.9305,-1.9351,-1.9476,-1.9523,-1.9578,-1.9668,-1.9727,-1.9815,-1.9855,-1.9953,-2.0007,-2.0084,-2.0147,-2.0126,-2.0277,-2.0261,-2.031,-2.0308,-2.034,-2.0337,-2.0442,-2.0372,-2.0372,-2.0372,-2.0372,0,-1.9137,-1.9221,-1.9318,-1.9381,-1.9478,-1.9542,-1.9636,-1.9694,-1.9774,-1.985,-1.9893,-1.9964,-2.0044,-2.0126,-2.0176,-2.0281,-2.0305,-2.0338,-2.035,-2.0334,-2.033,-2.0368,-2.0364,-2.0375,-2.0375,-2.0374,-2.0373,0,-1.9181,-1.9249,-1.9365,-1.9473,-1.9503,-1.9569,-1.9663,-1.9728,-1.9783,-1.988,-1.9907,-1.9995,-2.0095,-2.0165,-2.0293,-2.0327,-2.044,-2.0452,-2.0408,-2.0414,-2.0459,-2.0454,-2.0593,-2.0615,-2.053,-2.0531,-2.0531,0,-1.9232,-1.9298,-1.9413,-1.9467,-1.9521,-1.9607,-1.9668,-1.9734,-1.9796,-1.9906,-1.9957,-2.0059,-2.0144,-2.03,-2.0377,-2.0475,-2.049,-2.0533,-2.0506,-2.0487,-2.0492,-2.0487,-2.0494,-2.0536,-2.0537,-2.0537,-2.0538,0,-1.9315,-1.9345,-1.943,-1.9526,-1.9597,-1.9676,-1.9757,-1.9799,-1.988,-1.9947,-2.0048,-2.0114,-2.0244,-2.0345,-2.0451,-2.0509,-2.0538,-2.0546,-2.0562,-2.0546,-2.0519,-2.0535,-2.0419,-2.0542,-2.0542,-2.0541,-2.0541,-2.0541,-1.9365,-1.9425,-1.9516,-1.9609,-1.9676,-1.975,-1.9816,-1.988,-1.9965,-2.0075,-2.011,-2.0215,-2.0307,-2.0452,-2.0511,-2.0595,-2.0593,-2.0617,-2.0624,-2.0628,-2.0628,-2.0505,-2.0615,-2.0615,-2.0615,-2.0615,-2.0615,0,-1.945,-1.951,-1.9595,-1.9705,-1.9779,-1.9798,-1.9888,-1.9949,-2.004,-2.0123,-2.0205,-2.0322,-2.042,-2.0505,-2.0607,-2.0658,-2.0674,-2.0683,-2.068,-2.0693,-2.0624,-2.0599,-2.0669,-2.0669,-2.0668,-2.0668,-2.0668,-2.0668,-1.9503,-1.9606,-1.9647,-1.9785,-1.9846,-1.9948,-1.9998,-2.0067,-2.0133,-2.0261,-2.0342,-2.0396,-2.048,-2.0589,-2.0681,-2.0703,-2.0739,-2.0745,-2.0771,-2.0704,-2.0698,-2.0692,-2.0669,-2.0752,-2.0752,-2.0834,-2.0834,-2.0835]}]]